| time (UTC) | temp C | wind direction | speed KPH | gust KPH | rain 1hr cm | rain 24hr cm | rain mn cm | humidity % | barometer mb |
| 20260503233005 | -17 | 338 | 0.0 | 0.0 | 0.00 | 0.00 | 0.00 | 1009.6 | |
| 20260503231502 | -17 | 336 | 0.0 | 0.0 | 0.00 | 0.00 | 0.00 | 1009.8 | |
| 20260503230100 | -17 | 338 | 0.0 | 0.0 | 0.00 | 0.00 | 0.00 | 1010.0 | |
| 20260503224553 | -17 | 336 | 0.0 | 0.0 | 0.00 | 0.00 | 0.00 | 1010.2 | |
| 20260503223048 | -17 | 341 | 0.0 | 0.0 | 0.00 | 0.00 | 0.00 | 1010.5 | |
| 20260503221545 | -17 | 347 | 0.0 | 0.0 | 0.00 | 0.00 | 0.00 | 1010.7 | |
| 20260503220041 | -17 | 339 | 0.0 | 0.0 | 0.00 | 0.00 | 0.00 | 1010.9 | |
| 20260503214543 | -17 | 342 | 0.0 | 0.0 | 0.00 | 0.00 | 0.00 | 1011.0 | |
| 20260503213050 | -17 | 342 | 0.0 | 0.0 | 0.00 | 0.00 | 0.00 | 1011.2 | |
| 20260503211532 | -17 | 334 | 0.0 | 0.0 | 0.00 | 0.00 | 0.00 | 1011.3 | |
| 20260503210023 | -17 | 340 | 0.0 | 0.0 | 0.00 | 0.00 | 0.00 | 1011.5 | |
| 20260503204521 | -17 | 350 | 0.0 | 0.0 | 0.00 | 0.00 | 0.00 | 1011.8 | |
| 20260503203022 | -17 | 350 | 0.0 | 0.0 | 0.00 | 0.00 | 0.00 | 1012.0 | |
| 20260503201512 | -17 | 355 | 0.0 | 0.0 | 0.00 | 0.00 | 0.00 | 1012.2 | |
| 20260503200007 | -17 | 345 | 0.0 | 0.0 | 0.00 | 0.00 | 0.00 | 1012.4 | |
| 20260503194509 | -17 | 340 | 0.0 | 0.0 | 0.00 | 0.00 | 0.00 | 1012.6 | |
| 20260503193101 | -17 | 342 | 0.0 | 0.0 | 0.00 | 0.00 | 0.00 | 1012.7 | |
| 20260503191605 | -17 | 347 | 0.0 | 0.0 | 0.00 | 0.00 | 0.00 | 1012.9 | |
| 20260503190053 | -17 | 347 | 0.0 | 0.0 | 0.00 | 0.00 | 0.00 | 1013.0 | |
| 20260503184605 | -17 | 355 | 0.0 | 0.0 | 0.00 | 0.00 | 0.00 | 1013.2 | |
| 20260503183047 | -17 | 350 | 0.0 | 0.0 | 0.00 | 0.00 | 0.00 | 1013.4 | |
| 20260503181540 | -17 | 355 | 0.0 | 0.0 | 0.00 | 0.00 | 0.00 | 1013.5 | |
| 20260503180036 | -17 | 350 | 0.0 | 0.0 | 0.00 | 0.00 | 0.00 | 1013.6 | |
| 20260503174544 | -17 | 339 | 0.0 | 0.0 | 0.00 | 0.00 | 0.00 | 1013.7 | |
| 20260503173029 | -17 | 13 | 0.0 | 0.0 | 0.00 | 0.00 | 0.00 | 1013.8 | |
| 20260503171529 | -17 | 13 | 0.0 | 0.0 | 0.00 | 0.00 | 0.00 | 1013.9 | |
| 20260503081505 | -17 | 297 | 0.0 | 4.8 | 0.00 | 0.00 | 0.00 | 1014.4 | |
| 20260503071506 | -17 | 182 | 0.0 | 0.0 | 0.00 | 0.00 | 0.00 | 1014.3 | |
| 20260503054502 | -17 | 182 | 0.0 | 0.0 | 0.00 | 0.00 | 0.00 | 1014.0 | |
| 20260503053002 | -17 | 182 | 0.0 | 0.0 | 0.00 | 0.00 | 0.00 | 1014.1 | |
| 20260503051500 | -17 | 182 | 0.0 | 0.0 | 0.00 | 0.00 | 0.00 | 1014.0 | |
| 20260503050103 | -17 | 182 | 0.0 | 0.0 | 0.00 | 0.00 | 0.00 | 1014.0 | |
| 20260503044601 | -17 | 182 | 0.0 | 0.0 | 0.00 | 0.00 | 0.00 | 1013.9 | |
| 20260503043101 | -17 | 182 | 0.0 | 0.0 | 0.00 | 0.00 | 0.00 | 1013.6 | |
| 20260503041559 | -17 | 156 | 0.0 | 0.0 | 0.00 | 0.00 | 0.00 | 1013.5 | |
| 20260503040058 | -17 | 156 | 0.0 | 0.0 | 0.00 | 0.00 | 0.00 | 1013.2 | |
| 20260503034600 | -17 | 156 | 0.0 | 0.0 | 0.00 | 0.00 | 0.00 | 1013.1 | |
| 20260503033102 | -17 | 156 | 0.0 | 0.0 | 0.00 | 0.00 | 0.00 | 1012.8 | |
| 20260503031558 | -17 | 156 | 0.0 | 0.0 | 0.00 | 0.00 | 0.00 | 1012.8 | |
| 20260503030057 | -17 | 156 | 0.0 | 0.0 | 0.00 | 0.00 | 0.00 | 1012.7 | |
| 20260503024619 | -17 | 156 | 0.0 | 1.6 | 0.00 | 0.00 | 0.00 | 1012.6 | |
| 20260503023059 | -17 | 156 | 0.0 | 1.6 | 0.00 | 0.00 | 0.00 | 1012.5 | |
| 20260503021558 | -17 | 156 | 0.0 | 1.6 | 0.00 | 0.00 | 0.00 | 1012.4 | |
| 20260503014619 | -17 | 156 | 0.0 | 1.6 | 0.00 | 0.00 | 0.00 | 1012.3 | |
| 20260503013051 | -17 | 119 | 0.0 | 1.6 | 0.00 | 0.00 | 0.00 | 1012.3 | |
| 20260503011600 | -17 | 119 | 0.0 | 0.0 | 0.00 | 0.00 | 0.00 | 1012.3 | |
| 20260503010042 | -17 | 119 | 0.0 | 0.0 | 0.00 | 0.00 | 0.00 | 1012.4 | |
| 20260503004540 | -17 | 119 | 0.0 | 0.0 | 0.00 | 0.00 | 0.00 | 1012.4 | |
| 20260503003039 | -17 | 94 | 0.0 | 0.0 | 0.00 | 0.00 | 0.00 | 1012.5 | |
| 20260503001531 | -17 | 26 | 0.0 | 0.0 | 0.00 | 0.00 | 0.00 | 1012.6 | |
| 20260503000026 | -17 | 321 | 1.6 | 8.0 | 0.00 | 0.00 | 0.00 | 1012.8 | |
| 20260502234531 | -17 | 331 | 3.2 | 6.4 | 0.00 | 0.00 | 0.00 | 1012.9 |